Flag for Aruba Weather past 2 weeks in Oranjestad, Aruba

Now
82 °F

Passing clouds.


Feels Like: 89 °F
Forecast: 81 / 88 °F
Wind: 13 mph from East

Location: Queen Beatrix Airport - Aruba

Current Time: Oct 20, 2014 at 10:45:01 PM

Latest Report: Oct 20, 2014 at 10:00 PM


Visibility: N/A

Pressure: 29.89 "Hg

Humidity: 79%

Dew point: 75 °F

Location of OranjestadLocation

Historic Weather in Oranjestad — Graph

°F

Oranjestad temperature yesterday

Maximum temperature yesterday: 90 °F (at 12:00 PM)
Minimum temperature yesterday: 81 °F (at 3:00 AM)
Average temperature yesterday: 84 °F

Past Weeks' High & Low Weather Summary

 TemperatureHumidityPressure
High91 °F (Oct 11, 2:00 PM)94% (Oct 9, 9:00 PM)32.49 "Hg (Oct 9, 9:00 PM)
Low77 °F (Oct 9, 9:00 PM)59% (Oct 14, 1:00 PM)29.74 "Hg (Oct 8, 4:00 PM)
Average84 °F77%29.85 "Hg
* Reported Oct 5 9:00 PM — Oct 20 9:00 PM, Oranjestad, Weather by CustomWeather, © 2014

Note: Actual official high and low records may vary slightly from our data, if they occured in-between our weather recording intervals... More about our weather records

Advertising

Oranjestad weather history for previous 24 hours

 ConditionsComfort  
Time TempWeatherWind HumidityBarometerVisibility
9:00 PM
Oct 20
82 °FPassing clouds.13 mph84%29.89 "HgN/A
8:00 PM82 °FPassing clouds.13 mph84%29.86 "HgN/A
7:00 PM82 °FSmoke.7 mph84%29.83 "HgN/A
6:00 PM84 °FScattered clouds.13 mph79%29.80 "HgN/A
5:00 PM84 °FPassing clouds.16 mph74%29.80 "HgN/A
4:00 PM86 °FPassing clouds.13 mph75%29.80 "HgN/A
3:00 PM86 °FPassing clouds.13 mph75%29.80 "HgN/A
2:00 PM86 °FPassing clouds.12 mph66%29.83 "HgN/A
1:00 PM84 °FPartly sunny.13 mph79%29.89 "HgN/A
12:00 PM84 °FPassing clouds.6 mph79%29.92 "HgN/A
11:00 AM84 °FThunderstorms. Scattered clouds.9 mph74%29.95 "HgN/A
10:00 AM82 °FThunderstorms. Scattered clouds.12 mph79%29.95 "HgN/A
9:00 AM81 °FThunderstorms. Scattered clouds.12 mph74%29.92 "HgN/A
8:52 AM82 °FThunderstorms. Scattered clouds.16 mph70%29.92 "HgN/A
8:00 AM84 °FScattered clouds.7 mph84%29.89 "HgN/A
7:00 AM81 °FPassing clouds.6 mph89%29.89 "HgN/A
6:00 AM81 °FThunderstorms. Passing clouds.6 mph84%29.83 "HgN/A
5:00 AM81 °FThunderstorms. Passing clouds.6 mph84%29.83 "HgN/A
4:00 AM81 °FPassing clouds.9 mph89%29.83 "HgN/A
3:00 AM81 °FPassing clouds.8 mph89%29.83 "HgN/A
2:00 AM82 °FPassing clouds.9 mph84%29.86 "HgN/A
1:00 AM82 °FPassing clouds.9 mph79%29.89 "HgN/A
11:00 PM
Oct 19
82 °FPassing clouds.12 mph79%29.89 "HgN/A
10:00 PM82 °FPassing clouds.13 mph79%29.89 "HgN/A
Weather by CustomWeather, © 2014

See weather overviewHow to use our weather pages